Location: Unspecified
(0.0000°N, 0.0000°E)
Time: 10:44:39
(UTC+00:00)

Explorer 11/Cluster Stage 4 - Pass Details

Date: 01 October 2020
Orbit: 467 x 1258 km, 28.8° (Epoch: 28 October)

Event Time Altitude Azimuth Distance (km) Brightness Sun altitude
Rises 20:39:13 0° 269° (W) 2,487 10.0 -42.3°
Enters shadow 20:39:17 - 269° (W) 2,464 10.0 -42.4°
Reaches altitude 10° 20:41:50 10° 289° (WNW) 1,643 - -43.0°
Maximum altitude 20:44:25 18° 334° (NNW) 1,288 - -43.6°
Drops below altitude 10° 20:47:12 10° 18° (NNE) 1,786 - -44.3°
Sets 20:50:14 0° 37° (NE) 2,804 - -45.1°
